Wind_Speed
22 23 24 25 24 22 21 21 18 17 16 16 15 13 11 9 6 6 6 8 11 11 11 12 15 16 14 12 9 8 6 2 8 14 6 5 5 2 2 1 3 7 6 10 12 14 16
23 24 25 26 25 25 22 22 17 15 14 14 16 15 13 12 8 7 7 7 10 12 11 12 16 16 15 14 12 9 9 6 4 7 13 9 8 6 6 4 7 6 9 12 14 14 15
24 25 26 27 27 24 23 22 21 16 15 16 15 16 16 14 11 7 8 7 10 12 13 13 14 17 13 15 13 12 10 9 8 10 9 12 13 13 10 7 7 11 15 13 15 15 14
24 26 27 28 28 28 25 24 23 22 18 16 16 17 17 15 13 8 9 9 8 12 14 15 15 16 14 14 14 15 13 13 12 9 7 9 8 13 12 8 13 15 12 9 13 14 12
22 24 26 27 28 28 27 26 25 25 23 20 17 17 17 16 14 9 8 9 8 12 13 14 15 15 15 14 16 16 14 12 11 8 7 7 8 11 12 11 14 15 11 9 14 14 13
23 22 24 26 27 28 28 27 27 26 25 23 19 18 17 18 15 10 7 10 8 10 13 13 13 13 14 15 17 18 17 15 13 10 6 7 7 10 12 16 11 14 14 11 13 14 12
25 23 23 25 25 26 27 27 27 27 26 24 22 18 17 16 16 13 6 8 9 10 14 16 14 17 13 15 16 18 18 16 14 10 7 7 8 13 13 16 10 12 13 10 13 10 13
26 25 24 24 25 25 25 27 27 27 28 24 24 20 18 17 16 15 9 6 9 12 13 16 16 17 12 16 17 17 19 18 16 11 9 6 8 14 17 14 14 13 12 11 12 12 10
28 27 25 25 26 26 24 24 26 27 27 25 24 24 20 17 15 13 11 7 8 10 11 15 18 18 16 16 19 19 20 19 17 14 11 8 9 18 17 16 10 9 10 13 7 12 10
29 28 27 26 26 26 26 24 24 25 26 26 24 24 23 19 15 12 11 9 8 8 6 11 17 20 19 17 21 22 21 21 20 13 12 10 13 23 19 12 8 7 9 11 10 8 4
31 29 29 27 26 26 26 25 24 24 25 25 24 24 24 22 19 13 11 9 7 6 2 8 19 21 22 21 18 22 23 22 19 16 12 10 13 27 23 11 8 7 8 9 9 7 6
33 31 30 30 29 27 26 26 25 24 24 24 24 24 26 25 22 17 13 9 7 5 7 6 12 17 20 22 20 16 23 24 20 15 14 14 10 21 21 19 14 8 7 8 7 5 9
33 33 32 32 32 30 29 26 24 26 24 23 24 24 25 26 25 20 15 11 7 8 5 6 11 16 17 20 21 17 19 22 17 14 15 15 14 17 17 17 16 13 8 4 5 5 4
31 33 32 32 33 32 30 29 25 24 24 23 22 25 24 27 27 25 20 17 11 7 15 5 11 13 12 17 18 18 17 17 23 16 12 15 9 17 19 19 12 16 12 7 5 3 1
31 31 32 31 30 32 31 29 26 25 22 22 22 22 25 26 31 29 26 26 16 10 11 13 6 9 10 16 13 19 16 16 18 23 14 10 12 12 17 19 17 13 15 15 5 5 4
30 31 31 30 30 30 29 26 26 25 22 20 22 20 23 26 29 35 34 34 22 19 19 10 12 7 8 12 14 14 14 14 21 23 23 16 5 11 16 16 20 17 14 7 7 2 5
29 31 32 29 29 28 29 25 25 23 20 20 20 21 23 26 28 34 41 33 31 23 22 15 12 12 12 10 14 13 9 14 15 20 24 21 16 8 11 15 14 19 17 12 8 5 3
30 30 31 30 29 28 28 26 23 22 19 18 19 21 25 25 29 37 42 38 29 29 23 17 13 14 15 11 10 14 13 12 15 14 20 24 12 10 9 12 15 18 14 15 11 6 8
27 28 29 30 29 28 27 27 24 23 19 17 19 22 23 25 32 36 34 35 33 24 31 24 16 18 14 13 9 14 16 14 11 11 11 17 10 6 4 10 14 16 19 20 20 18 13
24 26 27 28 28 26 25 26 26 23 19 18 17 20 24 27 31 25 22 24 30 31 34 35 19 19 17 16 15 8 17 15 14 12 14 13 12 11 10 3 4 9 11 15 19 10 12
26 25 25 25 27 26 25 24 25 24 21 19 19 21 22 21 29 28 20 20 27 29 31 29 27 17 16 15 17 19 14 19 17 15 18 17 12 17 17 13 8 10 13 13 15 15 13
29 28 27 26 26 26 25 25 25 25 24 22 21 22 26 26 17 29 27 26 24 28 26 30 32 19 18 18 17 14 19 12 15 17 21 20 10 13 12 13 14 15 15 17 17 18 21
27 28 28 28 27 26 25 24 24 25 25 26 23 23 24 26 21 17 21 25 20 28 31 24 28 28 22 19 18 17 15 16 16 17 19 23 22 12 6 12 14 15 22 22 19 24 21
25 26 29 29 28 27 25 24 23 26 26 24 23 24 26 26 24 18 13 18 26 22 29 22 30 23 24 19 19 18 17 14 14 20 18 20 21 18 9 7 4 14 16 14 13 12 11
27 26 28 29 31 29 27 25 24 26 28 25 22 24 27 29 28 27 28 19 18 25 27 29 29 25 28 20 17 21 21 19 20 20 21 21 20 13 7 10 14 16 18 15 18 12 13
28 30 30 27 29 28 27 27 25 25 28 25 21 23 29 32 28 28 17 24 20 18 27 36 27 26 35 29 20 21 13 11 12 13 24 22 21 15 12 5 5 6 7 6 3 8 10
28 30 32 31 27 28 28 27 27 26 28 25 22 22 27 35 35 27 30 18 23 22 22 32 32 28 32 34 20 17 20 17 11 18 22 25 25 24 17 11 11 16 17 11 6 6 10
28 29 31 32 33 31 30 29 28 27 28 26 25 23 28 35 37 35 29 27 25 27 26 20 23 37 32 38 15 20 13 21 17 15 23 27 23 22 16 11 12 14 14 14 11 7 8
27 29 31 30 30 31 31 31 29 28 28 30 27 27 27 30 31 39 37 31 25 21 30 28 30 26 33 34 27 17 15 21 20 16 22 17 18 19 16 9 11 7 10 11 11 9 10
Wind_Direction
262 261 261 260 259 258 266 271 274 274 274 262 254 262 270 284 292 256 260 230 220 214 202 193 192 193 196 195 199 195 190 188 191 201 185 238 248 219 261 227 205 187 171 146 151 147 155
257 260 264 266 264 267 268 266 262 266 273 268 254 256 256 263 279 263 249 245 220 212 206 194 194 195 199 204 205 198 200 182 177 180 207 220 223 232 267 245 178 189 169 151 146 150 156
256 255 258 262 268 267 267 264 262 253 253 267 262 257 257 254 260 263 246 244 226 212 204 195 189 190 191 202 210 193 206 190 186 186 213 234 244 251 262 239 202 173 162 150 144 149 152
256 256 256 258 259 264 266 265 260 259 252 252 263 257 260 255 254 256 240 244 228 214 209 198 199 205 208 207 199 190 198 195 196 207 223 244 235 231 236 229 168 158 151 147 172 165 172
260 261 258 257 258 258 259 263 263 260 259 256 254 254 262 254 249 249 239 230 236 215 213 204 202 208 218 213 194 189 188 195 203 205 208 213 222 222 207 208 164 173 193 184 186 191 195
269 265 265 262 257 257 254 255 260 261 258 259 257 250 255 257 249 239 244 219 230 220 212 209 205 196 213 209 200 193 194 197 209 204 212 208 208 209 185 173 191 194 188 194 187 210 217
266 265 268 269 262 257 257 253 252 256 257 255 255 249 252 251 254 235 247 221 219 222 211 209 209 208 204 208 207 200 200 204 207 212 212 221 206 195 187 189 196 189 191 193 190 215 215
267 267 264 265 268 263 259 258 253 250 254 250 251 247 250 252 250 242 240 235 228 221 213 212 211 212 215 205 210 208 204 210 219 217 219 232 220 176 179 172 171 172 181 182 194 211 220
263 265 265 264 262 264 261 258 255 252 248 249 245 245 242 247 244 239 241 243 233 228 224 220 215 216 215 212 210 215 211 214 223 236 230 221 196 190 180 174 173 189 199 199 203 212 226
261 261 262 263 263 262 262 259 257 254 250 246 243 241 233 231 239 232 232 244 240 234 231 233 220 218 216 215 217 217 216 216 224 229 242 233 239 193 181 181 182 202 192 192 204 188 241
258 258 259 262 261 261 260 258 257 255 251 246 241 238 230 220 231 232 220 228 236 209 309 222 213 211 211 208 217 218 217 218 224 232 226 220 214 202 200 207 222 234 202 192 200 218 265
261 260 258 258 260 260 259 256 253 252 251 246 241 235 233 220 221 226 216 213 213 203 248 220 207 208 207 210 215 212 213 216 220 222 231 228 227 208 216 230 239 236 210 210 221 231 262
259 260 259 258 258 258 258 256 252 249 248 246 238 235 231 220 216 220 214 213 202 207 227 222 209 208 203 212 212 210 213 215 211 207 218 227 224 217 216 226 226 225 194 219 226 215 255
258 258 259 257 257 257 257 256 253 250 245 243 237 233 231 221 216 218 213 210 211 207 217 224 212 204 202 210 212 215 214 210 215 207 204 211 216 220 223 219 222 221 212 216 260 227 138
258 255 255 255 253 254 255 256 255 251 247 239 234 228 230 223 216 215 213 217 215 202 210 222 211 194 205 212 212 213 214 217 220 218 213 210 222 228 225 222 219 230 221 226 255 267 282
259 257 254 253 253 252 252 252 253 253 248 238 235 227 224 223 219 216 218 222 212 214 227 215 221 221 208 206 206 203 209 229 226 222 219 223 211 234 229 226 225 221 229 222 214 204 247
258 258 257 254 251 251 251 250 250 250 247 239 233 226 222 221 220 216 218 221 217 203 219 225 228 227 227 217 212 208 216 218 215 219 217 220 222 245 225 225 224 226 227 220 219 216 267
253 252 254 253 252 251 252 251 249 247 245 237 228 228 219 219 216 220 220 216 220 217 209 230 227 226 234 233 228 214 215 207 213 213 213 218 216 219 227 242 234 234 225 227 231 228 228
247 246 246 247 247 246 249 252 251 248 242 236 226 226 223 219 216 222 223 222 218 210 220 226 232 231 233 226 219 217 216 227 216 204 206 212 211 198 232 245 233 228 236 237 234 237 236
247 248 243 243 244 244 244 247 252 249 244 237 225 223 222 217 217 215 217 220 221 220 222 218 224 226 234 232 225 235 224 220 216 211 202 203 213 211 230 214 181 225 242 245 233 223 240
247 248 245 244 243 242 242 242 246 249 241 236 229 220 213 221 220 220 212 217 218 220 231 232 219 209 229 234 231 228 232 219 220 212 203 200 223 223 230 248 255 271 266 256 245 246 238
244 246 247 246 242 241 239 238 240 241 240 234 230 219 217 218 214 221 215 217 215 209 220 229 227 206 223 227 232 236 231 224 217 214 207 207 223 218 229 236 260 270 261 253 251 246 254
248 241 242 244 245 242 239 236 236 237 236 229 227 229 224 220 219 219 225 223 221 218 230 227 240 207 214 218 234 236 236 230 225 224 220 215 225 226 228 246 269 277 271 251 249 260 264
247 243 242 240 242 242 238 233 232 232 232 232 223 223 218 215 218 221 216 223 226 213 218 235 240 238 207 203 231 228 222 235 229 227 225 223 223 227 240 246 239 267 268 254 240 257 245
248 239 242 241 239 240 238 234 230 229 227 226 220 216 220 224 217 219 225 213 218 223 223 227 225 224 210 207 214 227 229 234 231 226 220 219 220 223 216 236 269 270 258 255 267 260 250
248 245 241 237 237 236 235 233 230 227 227 222 220 218 220 221 228 213 215 219 211 215 218 224 221 225 229 208 208 213 206 200 213 213 217 216 217 221 223 208 242 260 254 227 244 240 240
249 244 242 237 233 234 231 232 229 228 228 220 216 215 221 224 217 217 217 208 208 212 221 228 235 219 205 192 216 210 214 199 200 202 206 208 215 221 221 235 259 251 255 251 235 242 181
250 243 241 239 237 232 230 228 230 229 226 218 213 214 223 231 225 221 214 211 210 209 214 221 221 227 210 192 205 206 217 205 206 209 210 215 205 216 217 221 254 256 239 223 227 207 207
251 246 242 238 231 228 227 226 228 227 223 214 215 211 216 235 235 222 218 209 208 201 209 214 223 226 212 194 207 217 222 208 205 213 212 206 206 206 211 229 231 220 214 210 207 229 254
Height
3167 3167 3168 3168 3169 3170 3172 3173 3174 3175 3174 3175 3176 3177 3178 3178 3178 3177 3177 3177 3178 3180 3181 3181 3182 3184 3186 3187 3189 3189 3190 3191 3191 3193 3194 3195 3195 3195 3196 3195 3195 3194 3194 3193 3193 3193 3195
3162 3163 3164 3164 3166 3166 3168 3169 3170 3171 3172 3173 3173 3174 3175 3175 3175 3175 3175 3175 3176 3178 3180 3181 3181 3183 3185 3187 3187 3188 3189 3191 3191 3192 3193 3194 3194 3194 3194 3194 3195 3194 3194 3194 3194 3194 3196
3157 3158 3159 3160 3161 3162 3163 3164 3165 3167 3169 3169 3171 3171 3172 3172 3173 3173 3173 3173 3174 3176 3178 3180 3181 3182 3183 3185 3185 3187 3188 3190 3191 3191 3193 3193 3193 3193 3193 3193 3193 3194 3194 3195 3196 3196 3197
3152 3153 3154 3156 3156 3157 3158 3159 3161 3163 3165 3165 3168 3169 3169 3169 3170 3171 3171 3171 3171 3173 3175 3177 3180 3181 3181 3182 3183 3185 3187 3188 3189 3190 3191 3191 3190 3191 3191 3191 3192 3194 3197 3198 3198 3198 3199
3144 3146 3148 3149 3151 3152 3154 3155 3156 3158 3160 3162 3164 3165 3166 3166 3166 3168 3168 3169 3170 3171 3173 3175 3177 3179 3181 3181 3182 3184 3185 3187 3188 3189 3189 3189 3189 3189 3189 3190 3193 3194 3196 3197 3197 3198 3198
3139 3138 3141 3144 3144 3146 3148 3150 3151 3153 3156 3157 3161 3162 3163 3163 3164 3165 3166 3166 3167 3169 3171 3172 3174 3178 3178 3179 3180 3182 3184 3185 3187 3188 3189 3188 3187 3187 3187 3190 3191 3192 3195 3194 3196 3196 3197
3134 3134 3135 3138 3139 3140 3142 3144 3147 3148 3151 3154 3156 3159 3159 3160 3161 3163 3165 3165 3167 3168 3168 3170 3171 3173 3173 3176 3178 3180 3182 3184 3185 3187 3187 3187 3187 3185 3184 3188 3187 3190 3192 3193 3194 3192 3194
3129 3130 3130 3131 3134 3134 3135 3138 3141 3143 3145 3148 3151 3154 3156 3157 3158 3161 3162 3162 3163 3165 3165 3166 3169 3171 3173 3173 3176 3178 3181 3183 3184 3185 3185 3188 3187 3186 3185 3186 3187 3188 3190 3191 3191 3191 3193
3123 3125 3125 3126 3128 3130 3130 3132 3135 3137 3140 3143 3145 3149 3152 3155 3156 3158 3159 3160 3160 3161 3163 3164 3165 3167 3170 3172 3172 3174 3178 3179 3182 3182 3184 3185 3186 3184 3185 3186 3187 3187 3188 3188 3189 3189 3189
3116 3118 3120 3121 3123 3124 3126 3127 3129 3131 3133 3137 3140 3143 3147 3151 3155 3154 3156 3158 3158 3159 3161 3161 3162 3163 3166 3168 3170 3171 3173 3177 3179 3181 3181 3183 3182 3183 3185 3186 3188 3188 3186 3187 3187 3188 3187
3110 3111 3113 3115 3116 3119 3120 3122 3123 3126 3128 3131 3134 3138 3141 3146 3150 3152 3154 3155 3157 3158 3159 3157 3156 3157 3160 3165 3165 3168 3170 3174 3176 3178 3181 3180 3179 3180 3183 3185 3186 3187 3186 3187 3186 3187 3186
3103 3105 3107 3109 3110 3111 3114 3116 3118 3120 3122 3126 3128 3132 3135 3141 3145 3149 3150 3152 3155 3160 3154 3152 3151 3153 3157 3159 3162 3164 3167 3170 3173 3176 3177 3177 3178 3179 3182 3182 3184 3185 3185 3185 3185 3187 3184
3096 3098 3100 3102 3103 3105 3108 3110 3112 3114 3117 3120 3123 3126 3130 3136 3141 3144 3148 3151 3155 3152 3151 3150 3149 3150 3154 3156 3159 3161 3164 3166 3170 3174 3174 3175 3176 3176 3179 3181 3182 3183 3185 3185 3185 3184 3180
3088 3091 3093 3095 3097 3098 3100 3104 3106 3108 3111 3115 3118 3121 3124 3130 3135 3140 3144 3148 3147 3144 3146 3146 3147 3149 3152 3153 3155 3158 3161 3163 3166 3169 3171 3173 3175 3174 3175 3177 3180 3179 3183 3183 3179 3177 3177
3082 3083 3086 3088 3090 3092 3093 3097 3100 3101 3106 3109 3113 3115 3119 3123 3128 3134 3140 3138 3138 3141 3142 3145 3147 3148 3149 3150 3154 3155 3158 3161 3162 3165 3170 3169 3171 3170 3172 3173 3177 3176 3178 3179 3179 3178 3179
3074 3076 3078 3081 3083 3086 3087 3090 3093 3095 3099 3104 3107 3111 3113 3116 3121 3127 3131 3129 3133 3138 3141 3143 3146 3147 3148 3149 3152 3152 3154 3154 3157 3160 3163 3166 3168 3168 3169 3171 3173 3173 3175 3178 3177 3177 3174
3065 3068 3070 3073 3075 3078 3081 3083 3087 3090 3094 3098 3102 3106 3108 3109 3114 3119 3118 3122 3129 3134 3138 3141 3143 3144 3146 3147 3149 3150 3151 3151 3152 3154 3159 3161 3165 3167 3167 3167 3169 3170 3170 3173 3173 3173 3170
3058 3060 3063 3065 3068 3071 3074 3077 3080 3084 3088 3093 3096 3100 3102 3104 3109 3108 3110 3115 3122 3129 3134 3137 3139 3141 3143 3145 3146 3148 3148 3148 3149 3152 3155 3157 3160 3162 3164 3163 3163 3165 3166 3169 3170 3170 3169
3052 3053 3056 3059 3061 3065 3067 3071 3073 3078 3083 3087 3091 3093 3096 3099 3099 3101 3106 3111 3118 3125 3130 3132 3135 3138 3140 3142 3145 3144 3144 3146 3147 3149 3151 3154 3157 3160 3161 3162 3160 3160 3161 3162 3164 3165 3166
3046 3047 3049 3052 3055 3058 3061 3065 3067 3070 3076 3081 3086 3089 3091 3092 3092 3097 3103 3106 3112 3118 3123 3127 3130 3134 3137 3139 3141 3141 3141 3143 3145 3147 3149 3151 3152 3154 3155 3155 3155 3156 3157 3157 3159 3161 3160
3038 3041 3043 3046 3048 3051 3056 3059 3061 3063 3069 3075 3079 3083 3085 3085 3088 3091 3100 3102 3106 3112 3116 3120 3126 3129 3134 3136 3137 3138 3139 3140 3142 3144 3146 3149 3149 3150 3151 3152 3153 3153 3153 3153 3154 3156 3156
3032 3035 3038 3040 3042 3046 3049 3053 3055 3058 3062 3068 3073 3077 3078 3080 3083 3086 3090 3095 3101 3107 3111 3115 3118 3122 3129 3133 3135 3136 3137 3138 3138 3141 3143 3145 3147 3147 3148 3149 3150 3149 3149 3148 3149 3149 3148
3024 3028 3030 3033 3036 3039 3043 3046 3049 3052 3056 3061 3065 3070 3074 3076 3079 3084 3085 3090 3095 3104 3106 3112 3112 3116 3123 3129 3130 3131 3133 3134 3135 3137 3139 3142 3144 3145 3146 3146 3146 3146 3143 3143 3143 3142 3144
3017 3020 3023 3027 3030 3033 3037 3040 3043 3046 3049 3055 3060 3065 3068 3070 3074 3079 3082 3087 3090 3095 3103 3107 3107 3110 3117 3120 3125 3127 3128 3130 3131 3133 3135 3138 3141 3143 3143 3144 3145 3139 3137 3137 3138 3137 3138
3010 3013 3016 3019 3023 3026 3030 3034 3038 3040 3043 3049 3054 3058 3060 3063 3067 3071 3075 3079 3085 3090 3094 3099 3101 3108 3112 3115 3120 3122 3123 3125 3126 3128 3130 3134 3137 3139 3140 3140 3138 3136 3133 3133 3134 3135 3134
3001 3005 3008 3012 3016 3019 3024 3027 3031 3034 3037 3043 3048 3052 3055 3058 3062 3066 3069 3073 3079 3084 3091 3091 3098 3102 3106 3112 3115 3113 3116 3119 3122 3123 3125 3129 3132 3137 3136 3137 3135 3131 3129 3130 3131 3132 3130
2993 2996 3000 3004 3008 3012 3016 3020 3024 3028 3032 3037 3042 3047 3049 3051 3056 3060 3065 3069 3073 3079 3083 3086 3091 3095 3098 3104 3108 3110 3112 3112 3114 3116 3120 3123 3126 3128 3131 3133 3130 3127 3127 3128 3131 3132 3127
2984 2988 2991 2996 3000 3005 3009 3014 3019 3022 3026 3031 3037 3041 3045 3044 3049 3053 3058 3064 3068 3072 3078 3081 3089 3090 3093 3100 3103 3105 3105 3106 3109 3112 3112 3116 3119 3122 3127 3129 3126 3120 3123 3126 3125 3124 3126
2976 2979 2983 2987 2992 2998 3002 3007 3012 3016 3021 3026 3030 3036 3040 3040 3042 3046 3052 3058 3062 3066 3071 3072 3080 3081 3088 3095 3096 3100 3100 3100 3103 3106 3109 3112 3113 3114 3118 3118 3116 3117 3118 3120 3121 3122 3123